Location: Unspecified
(0.0000°N, 0.0000°E)
Time: 05:07:50
(UTC+02:00)

NOAA 12 - Pass Details

Date: 21 June 2018
Orbit: 795 x 815 km, 98.5° (Epoch: 19 September)

Event Time Altitude Azimuth Distance (km) Brightness Sun altitude
Rises 07:31:17 0° 53° (NE) 3,319 9.3 -7.0°
Reaches altitude 10° 07:35:48 10° 89° (E) 2,387 7.9 -6.0°
Maximum altitude 07:37:01 11° 103° (ESE) 2,332 7.4 -5.7°
Drops below altitude 10° 07:38:14 10° 117° (ESE) 2,386 7.2 -5.4°
Sets 07:42:42 0° 153° (SSE) 3,315 7.4 -4.4°
